This demonstration page uses our WeatherBlox Daily Observations layout. Learn more.

Left ArrowRight Arrow

Hourly Observations for May 26, 2018

Temp ( °F °C ) Dew Point ( °F °C ) Humidity (%) Winds ( mph kmh ) Pressure ( in mb ) Visibility ( mi km ) Precip ( " mm )
12:53 am 00:53 Clear 65 18.3 63 17.2 93 93 Calm 29.86 1011 10 16 0.00 0.00
1:53 am 01:53 Clear 64 17.8 63 17.2 96 96 Calm 29.86 1011 10 16 0.00 0.00
2:53 am 02:53 Clear 65 18.3 64 17.8 97 97 Calm 29.84 1011 10 16 0.00 0.00
3:53 am 03:53 Mostly Cloudy 66 18.9 65 18.3 96 96 Calm 29.84 1010 10 16 0.00 0.00
4:53 am 04:53 Mostly Cloudy 66 18.9 65 18.3 96 96 Calm 29.84 1011 10 16 0.00 0.00
5:53 am 05:53 Mostly Clear 66 18.9 65 18.3 96 96 Calm 29.84 1010 10 16 0.00 0.00
6:53 am 06:53 Partly Cloudy 67 19.4 66 18.9 97 97 Calm 29.85 1011 10 16 0.00 0.00
7:53 am 07:53 Mostly Sunny 70 21.1 67 19.4 90 90 Calm 29.86 1011 10 16 0.00 0.00
8:53 am 08:53 Mostly Sunny 75 23.9 67 19.4 76 76 WSW 6 9 29.87 1012 10 16 0.00 0.00
9:53 am 09:53 Sunny 76 24.4 68 20 77 77 W 6 9 29.89 1012 10 16 0.00 0.00
10:53 am 10:53 Mostly Sunny 80 26.7 69 20.6 69 69 W 7 11 29.87 1012 10 16 0.00 0.00
11:53 am 11:53 Sunny 81 27.2 69 20.6 67 67 VRB 3 6 29.86 1011 10 16 0.00 0.00
12:53 pm 12:53 Mostly Cloudy 83 28.3 70 21.1 65 65 SW 7 11 29.85 1011 10 16 0.00 0.00
1:53 pm 13:53 Partly Cloudy 84 28.9 69 20.6 61 61 SSW 9 15 29.82 1010 10 16 0.00 0.00
2:53 pm 14:53 Partly Cloudy 84 28.9 68 20 59 59 SSW 9 15 29.80 1009 10 16 0.00 0.00
3:07 pm 15:07 Partly Cloudy with Thunderstorms 83 28.3 68 20 61 61 SSW 3 6 29.77 1008 10 16 0.00 0.00
3:31 pm 15:31 Cloudy with Strong Thunderstorms 75 23.9 70 21.1 84 84 WSW 16 26 29.85 1011 2 3 0.07 1.78
3:38 pm 15:38 Cloudy with Strong Thunderstorms 70 21.1 69 20.6 97 97 W 13 20 29.83 1010 1 1 0.21 5.33
3:51 pm 15:51 Cloudy with Strong Thunderstorms 70 21 70 21 100 100 VRB 5 7 29.83 1010 2 2 0.32 8.13
3:53 pm 15:53 Cloudy with Thunderstorms 70 21.1 69 20.6 97 97 Calm 29.81 1010 2 3 0.33 8.38
3:58 pm 15:58 Cloudy with Thunderstorms 70 21.1 70 21.1 100 100 Calm 29.83 1010 3 5 0.00 0.03
4:28 pm 16:28 Partly Cloudy with Nearby Thunderstorms 71 21.7 71 21.7 100 100 VRB 3 6 29.83 1010 10 16 0.00 0.03
4:50 pm 16:50 Mostly Sunny 72 22 70 21 94 94 Calm 29.83 1010 10 16 0.00 0.03
4:53 pm 16:53 Partly Cloudy 72 22.2 70 21.1 94 94 Calm 29.81 1010 10 16 0.00 0.03
5:53 pm 17:53 Sunny 78 25.6 73 22.8 85 85 VRB 3 6 29.79 1009 10 16 0.00 0.00
6:53 pm 18:53 Sunny 81 27.2 73 22.8 77 77 Calm 29.78 1009 10 16 0.00 0.00
7:53 pm 19:53 Sunny 80 26.7 73 22.8 79 79 S 3 6 29.78 1009 10 16 0.00 0.00
8:53 pm 20:53 Sunny 78 25.6 72 22.2 82 82 VRB 3 6 29.80 1009 10 16 0.00 0.00
9:53 pm 21:53 Clear 74 23.3 71 21.7 91 91 Calm 29.82 1010 10 16 0.00 0.00
10:03 pm 22:03 Mostly Clear with Nearby Thunderstorms 74 23.3 70 21.1 88 88 Calm 29.83 1010 10 16 0.00 0.00
10:18 pm 22:18 Mostly Cloudy 75 23.9 70 21.1 84 84 NNE 7 11 29.85 1011 10 16 0.00 0.00
10:27 pm 22:27 Mostly Cloudy with Nearby Thunderstorms 76 24.4 70 21.1 82 82 E 6 9 29.85 1011 10 16 0.00 0.00
10:53 pm 22:53 Cloudy with Nearby Thunderstorms 74 23.3 69 20.6 85 85 NE 8 13 29.85 1011 10 16 0.00 0.00
11:28 pm 23:28 Cloudy with Strong Thunderstorms 70 21.1 67 19.4 90 90 VRB 6 9 29.91 1013 5 8 0.03 0.76
11:53 pm 23:53 Cloudy with Thunderstorms 68 20 68 20 100 100 Calm 29.89 1012 7 11 0.11 2.79

Powered by AerisWeather